owner,sensor,date,latitude,longitude,vertical_datum,direction_of_sea_water_velocity,sea_water_speed,upward_sea_water_velocity,qcFlag 
TABS,ioos:station:wmo:42048:1,1998-07-01T00:00:00Z,27.9396,-96.8429,2.0,226.1768264,10.32593821,-99999.0,'11111222,11111222,99999999' 
TABS,ioos:station:wmo:42048:1,1998-07-01T00:30:00Z,27.9396,-96.8429,2.0,214.1386773,10.62006121,-99999.0,'11111222,11111222,99999999' 
TABS,ioos:station:wmo:42048:1,1998-07-01T01:00:00Z,27.9396,-96.8429,2.0,214.7725359,13.06274856,-99999.0,'11111222,11111222,99999999' 
TABS,ioos:station:wmo:42048:1,1998-07-01T01:30:00Z,27.9396,-96.8429,2.0,210.7414283,12.8333355,-99999.0,'11111222,11111222,99999999' 
TABS,ioos:station:wmo:42048:1,1998-07-01T02:00:00Z,27.9396,-96.8429,2.0,207.1113024,14.06550746,-99999.0,'11111222,11111222,99999999' 
TABS,ioos:station:wmo:42048:1,1998-07-01T02:30:00Z,27.9396,-96.8429,2.0,209.4783637,15.74886028,-99999.0,'11111222,11111222,99999999' 
TABS,ioos:station:wmo:42048:1,1998-07-01T03:00:00Z,27.9396,-96.8429,2.0,207.4802103,16.79501414,-99999.0,'11111222,11111222,99999999' 
TABS,ioos:station:wmo:42048:1,1998-07-01T03:30:00Z,27.9396,-96.8429,2.0,208.5193346,15.60341629,-99999.0,'11111222,11111222,99999999' 
TABS,ioos:station:wmo:42048:1,1998-07-01T04:00:00Z,27.9396,-96.8429,2.0,205.3004811,14.99872328,-99999.0,'11111222,11111222,99999999' 
TABS,ioos:station:wmo:42048:1,1998-07-01T04:30:00Z,27.9396,-96.8429,2.0,210.7410371,13.69426522,-99999.0,'11111222,11111222,99999999' 
TABS,ioos:station:wmo:42048:1,1998-07-01T05:00:00Z,27.9396,-96.8429,2.0,212.9206708,12.60392399,-99999.0,'11111222,11111222,99999999' 
TABS,ioos:station:wmo:42048:1,1998-07-01T05:30:00Z,27.9396,-96.8429,2.0,210.8451293,11.6241989,-99999.0,'11111222,11111222,99999999' 
TABS,ioos:station:wmo:42048:1,1998-07-01T06:00:00Z,27.9396,-96.8429,2.0,203.8763491,12.87155779,-99999.0,'11111222,11111222,99999999' 
TABS,ioos:station:wmo:42048:1,1998-07-01T06:30:00Z,27.9396,-96.8429,2.0,215.2150795,12.39916933,-99999.0,'11111222,11111222,99999999' 
TABS,ioos:station:wmo:42048:1,1998-07-01T07:00:00Z,27.9396,-96.8429,2.0,215.9418174,9.387230689,-99999.0,'11133222,11111222,99999999' 
TABS,ioos:station:wmo:42048:1,1998-07-01T07:30:00Z,27.9396,-96.8429,2.0,209.5579036,10.27757267,-99999.0,'11111222,11111222,99999999' 
TABS,ioos:station:wmo:42048:1,1998-07-01T08:00:00Z,27.9396,-96.8429,2.0,215.068653,10.37312393,-99999.0,'11111222,11111222,99999999' 
TABS,ioos:station:wmo:42048:1,1998-07-01T08:30:00Z,27.9396,-96.8429,2.0,210.6484348,9.357104253,-99999.0,'11133222,11111222,99999999' 
TABS,ioos:station:wmo:42048:1,1998-07-01T09:00:00Z,27.9396,-96.8429,2.0,205.7905602,9.929048293,-99999.0,'11133222,11111222,99999999' 
TABS,ioos:station:wmo:42048:1,1998-07-01T09:30:00Z,27.9396,-96.8429,2.0,197.3002763,7.027958452,-99999.0,'11133222,11111222,99999999' 
TABS,ioos:station:wmo:42048:1,1998-07-01T10:00:00Z,27.9396,-96.8429,2.0,210.1281647,7.411241461,-99999.0,'11133222,11111222,99999999' 
TABS,ioos:station:wmo:42048:1,1998-07-01T10:30:00Z,27.9396,-96.8429,2.0,195.3760048,7.882138035,-99999.0,'11133222,11111222,99999999' 
TABS,ioos:station:wmo:42048:1,1998-07-01T11:00:00Z,27.9396,-96.8429,2.0,200.6669785,8.443364258,-99999.0,'11133222,11111222,99999999' 
TABS,ioos:station:wmo:42048:1,1998-07-01T11:30:00Z,27.9396,-96.8429,2.0,182.5074854,6.856566196,-99999.0,'11133222,11111222,99999999' 
TABS,ioos:station:wmo:42048:1,1998-07-01T12:00:00Z,27.9396,-96.8429,2.0,186.3868916,5.393477542,-99999.0,'11133222,11111222,99999999' 
TABS,ioos:station:wmo:42048:1,1998-07-01T12:30:00Z,27.9396,-96.8429,2.0,182.2602862,7.605918748,-99999.0,'11133222,11111222,99999999' 
TABS,ioos:station:wmo:42048:1,1998-07-01T13:00:00Z,27.9396,-96.8429,2.0,173.7064764,6.750681447,-99999.0,'11133222,11111222,99999999' 
TABS,ioos:station:wmo:42048:1,1998-07-01T13:30:00Z,27.9396,-96.8429,2.0,167.6857392,8.393098355,-99999.0,'11133222,11111222,99999999' 
TABS,ioos:station:wmo:42048:1,1998-07-01T14:00:00Z,27.9396,-96.8429,2.0,176.7962861,5.368388958,-99999.0,'11133222,11111222,99999999' 
TABS,ioos:station:wmo:42048:1,1998-07-01T14:30:00Z,27.9396,-96.8429,2.0,160.5538891,5.376709031,-99999.0,'11133222,11111222,99999999' 
TABS,ioos:station:wmo:42048:1,1998-07-01T15:00:00Z,27.9396,-96.8429,2.0,158.5308513,4.480903927,-99999.0,'11133222,11111222,99999999' 
TABS,ioos:station:wmo:42048:1,1998-07-01T15:30:00Z,27.9396,-96.8429,2.0,146.3098008,5.913104092,-99999.0,'11133222,11111222,99999999' 
TABS,ioos:station:wmo:42048:1,1998-07-01T16:00:00Z,27.9396,-96.8429,2.0,118.851441,4.932220595,-99999.0,'11133222,11111222,99999999' 
TABS,ioos:station:wmo:42048:1,1998-07-01T16:30:00Z,27.9396,-96.8429,2.0,131.5506316,5.171247432,-99999.0,'11133222,11111222,99999999' 
TABS,ioos:station:wmo:42048:1,1998-07-01T17:00:00Z,27.9396,-96.8429,2.0,132.2561962,6.647352857,-99999.0,'11133222,11111222,99999999' 
TABS,ioos:station:wmo:42048:1,1998-07-01T17:30:00Z,27.9396,-96.8429,2.0,126.5910027,5.754068126,-99999.0,'11133222,11111222,99999999' 
TABS,ioos:station:wmo:42048:1,1998-07-01T18:00:00Z,27.9396,-96.8429,2.0,121.4640701,6.283947804,-99999.0,'11133222,11111222,99999999' 
TABS,ioos:station:wmo:42048:1,1998-07-01T18:30:00Z,27.9396,-96.8429,2.0,136.8594898,6.537109453,-99999.0,'11133222,11111222,99999999' 
TABS,ioos:station:wmo:42048:1,1998-07-01T19:00:00Z,27.9396,-96.8429,2.0,142.1174948,6.7910603,-99999.0,'11133222,11111222,99999999' 
TABS,ioos:station:wmo:42048:1,1998-07-01T19:30:00Z,27.9396,-96.8429,2.0,131.16316,4.755344362,-99999.0,'11133222,11111222,99999999' 
TABS,ioos:station:wmo:42048:1,1998-07-01T20:00:00Z,27.9396,-96.8429,2.0,139.9226987,4.861614958,-99999.0,'11133222,11111222,99999999' 
TABS,ioos:station:wmo:42048:1,1998-07-01T20:30:00Z,27.9396,-96.8429,2.0,162.5269091,5.462023435,-99999.0,'11133222,11111222,99999999' 
TABS,ioos:station:wmo:42048:1,1998-07-01T21:00:00Z,27.9396,-96.8429,2.0,161.5648838,4.237452065,-99999.0,'11133222,11111222,99999999' 
TABS,ioos:station:wmo:42048:1,1998-07-01T21:30:00Z,27.9396,-96.8429,2.0,194.5458042,3.543585755,-99999.0,'11133222,11111222,99999999' 
TABS,ioos:station:wmo:42048:1,1998-07-01T22:00:00Z,27.9396,-96.8429,2.0,206.5647786,2.660920893,-99999.0,'11133222,11111222,99999999' 
TABS,ioos:station:wmo:42048:1,1998-07-01T22:30:00Z,27.9396,-96.8429,2.0,182.8813665,2.98377278,-99999.0,'11133222,11111222,99999999' 
TABS,ioos:station:wmo:42048:1,1998-07-01T23:00:00Z,27.9396,-96.8429,2.0,209.6559541,2.405036382,-99999.0,'11133222,11111222,99999999' 
TABS,ioos:station:wmo:42048:1,1998-07-01T23:30:00Z,27.9396,-96.8429,2.0,212.3803915,1.941957775,-99999.0,'11133222,11111222,99999999' 
TABS,ioos:station:wmo:42048:1,1998-07-02T00:00:00Z,27.9396,-96.8429,2.0,224.9996843,0.848528137,-99999.0,'11133222,11111222,99999999' 
TABS,ioos:station:wmo:42048:1,1998-07-02T00:30:00Z,27.9396,-96.8429,2.0,53.13018857,0.75,-99999.0,'11133222,11111222,99999999' 
TABS,ioos:station:wmo:42048:1,1998-07-02T01:00:00Z,27.9396,-96.8429,2.0,251.5646734,0.474341649,-99999.0,'11133222,11111222,99999999' 
TABS,ioos:station:wmo:42048:1,1998-07-02T01:30:00Z,27.9396,-96.8429,2.0,270.0004209,0.74,-99999.0,'11133222,11111222,99999999' 
TABS,ioos:station:wmo:42048:1,1998-07-02T02:00:00Z,27.9396,-96.8429,2.0,350.4335468,0.902551938,-99999.0,'11133222,11111222,99999999' 
TABS,ioos:station:wmo:42048:1,1998-07-02T02:30:00Z,27.9396,-96.8429,2.0,305.9653418,2.026252699,-99999.0,'11133222,11111222,99999999' 
TABS,ioos:station:wmo:42048:1,1998-07-02T03:00:00Z,27.9396,-96.8429,2.0,343.1325792,3.584201445,-99999.0,'11133222,11111222,99999999' 
TABS,ioos:station:wmo:42048:1,1998-07-02T03:30:00Z,27.9396,-96.8429,2.0,338.2320092,3.208815981,-99999.0,'11133222,11111222,99999999' 
TABS,ioos:station:wmo:42048:1,1998-07-02T04:00:00Z,27.9396,-96.8429,2.0,341.6133313,3.772598574,-99999.0,'11133222,11111222,99999999' 
TABS,ioos:station:wmo:42048:1,1998-07-02T04:30:00Z,27.9396,-96.8429,2.0,353.3677114,3.896074948,-99999.0,'11133222,11111222,99999999' 
TABS,ioos:station:wmo:42048:1,1998-07-02T05:00:00Z,27.9396,-96.8429,2.0,18.37095534,2.823915721,-99999.0,'11133222,11111222,99999999' 
TABS,ioos:station:wmo:42048:1,1998-07-02T05:30:00Z,27.9396,-96.8429,2.0,20.81654954,3.348581789,-99999.0,'11133222,11111222,99999999' 
TABS,ioos:station:wmo:42048:1,1998-07-02T06:00:00Z,27.9396,-96.8429,2.0,31.00166363,2.601634102,-99999.0,'11133222,11111222,99999999' 
TABS,ioos:station:wmo:42048:1,1998-07-02T06:30:00Z,27.9396,-96.8429,2.0,36.44658253,3.518096076,-99999.0,'11133222,11111222,99999999' 
TABS,ioos:station:wmo:42048:1,1998-07-02T07:00:00Z,27.9396,-96.8429,2.0,46.47901024,4.109659353,-99999.0,'11133222,11111222,99999999' 
TABS,ioos:station:wmo:42048:1,1998-07-02T07:30:00Z,27.9396,-96.8429,2.0,60.5076698,3.940621778,-99999.0,'11133222,11111222,99999999' 
TABS,ioos:station:wmo:42048:1,1998-07-02T08:00:00Z,27.9396,-96.8429,2.0,90.0,3.72,-99999.0,'11133222,11111222,99999999' 
TABS,ioos:station:wmo:42048:1,1998-07-02T08:30:00Z,27.9396,-96.8429,2.0,85.00143927,3.443094538,-99999.0,'11133222,11111222,99999999' 
TABS,ioos:station:wmo:42048:1,1998-07-02T09:00:00Z,27.9396,-96.8429,2.0,102.1508826,2.137896162,-99999.0,'11133222,11111222,99999999' 
TABS,ioos:station:wmo:42048:1,1998-07-02T09:30:00Z,27.9396,-96.8429,2.0,102.9513281,3.97102002,-99999.0,'11133222,11111222,99999999' 
TABS,ioos:station:wmo:42048:1,1998-07-02T10:00:00Z,27.9396,-96.8429,2.0,116.5136948,4.995377864,-99999.0,'11133222,11111222,99999999' 
TABS,ioos:station:wmo:42048:1,1998-07-02T10:30:00Z,27.9396,-96.8429,2.0,133.9506413,5.792175757,-99999.0,'11133222,11111222,99999999' 
TABS,ioos:station:wmo:42048:1,1998-07-02T11:00:00Z,27.9396,-96.8429,2.0,149.3195695,5.546332121,-99999.0,'11133222,11111222,99999999' 
TABS,ioos:station:wmo:42048:1,1998-07-02T11:30:00Z,27.9396,-96.8429,2.0,137.2290696,5.271935129,-99999.0,'11133222,11111222,99999999' 
TABS,ioos:station:wmo:42048:1,1998-07-02T12:00:00Z,27.9396,-96.8429,2.0,142.3463479,6.580615473,-99999.0,'11133222,11111222,99999999' 
TABS,ioos:station:wmo:42048:1,1998-07-02T12:30:00Z,27.9396,-96.8429,2.0,145.020757,7.273960407,-99999.0,'11133222,11111222,99999999' 
TABS,ioos:station:wmo:42048:1,1998-07-02T13:00:00Z,27.9396,-96.8429,2.0,157.9935795,6.751925651,-99999.0,'11133222,11111222,99999999' 
TABS,ioos:station:wmo:42048:1,1998-07-02T13:30:00Z,27.9396,-96.8429,2.0,168.9313642,6.979835242,-99999.0,'11133222,11111222,99999999' 
TABS,ioos:station:wmo:42048:1,1998-07-02T14:00:00Z,27.9396,-96.8429,2.0,161.5648838,8.949245778,-99999.0,'11133222,11111222,99999999' 
TABS,ioos:station:wmo:42048:1,1998-07-02T14:30:00Z,27.9396,-96.8429,2.0,159.9395999,8.250539376,-99999.0,'11133222,11111222,99999999' 
TABS,ioos:station:wmo:42048:1,1998-07-02T15:00:00Z,27.9396,-96.8429,2.0,172.0528276,7.522240358,-99999.0,'11133222,11111222,99999999' 
TABS,ioos:station:wmo:42048:1,1998-07-02T15:30:00Z,27.9396,-96.8429,2.0,174.3145927,8.984191672,-99999.0,'11133222,11111222,99999999' 
TABS,ioos:station:wmo:42048:1,1998-07-02T16:00:00Z,27.9396,-96.8429,2.0,185.3295544,9.581424737,-99999.0,'11133222,11111222,99999999' 
TABS,ioos:station:wmo:42048:1,1998-07-02T16:30:00Z,27.9396,-96.8429,2.0,186.8634654,8.702367494,-99999.0,'11133222,11111222,99999999' 
TABS,ioos:station:wmo:42048:1,1998-07-02T17:00:00Z,27.9396,-96.8429,2.0,196.1848004,8.538407346,-99999.0,'11133222,11111222,99999999' 
TABS,ioos:station:wmo:42048:1,1998-07-02T17:30:00Z,27.9396,-96.8429,2.0,195.929029,9.764962878,-99999.0,'11133222,11111222,99999999' 
TABS,ioos:station:wmo:42048:1,1998-07-02T18:00:00Z,27.9396,-96.8429,2.0,220.7874792,8.664248381,-99999.0,'11133222,11111222,99999999' 
TABS,ioos:station:wmo:42048:1,1998-07-02T18:30:00Z,27.9396,-96.8429,2.0,227.3056456,10.54442981,-99999.0,'11111222,11111222,99999999' 
TABS,ioos:station:wmo:42048:1,1998-07-02T19:00:00Z,27.9396,-96.8429,2.0,231.4572401,12.1971964,-99999.0,'11111222,11111222,99999999' 
TABS,ioos:station:wmo:42048:1,1998-07-02T19:30:00Z,27.9396,-96.8429,2.0,228.198033,16.98287373,-99999.0,'11111222,11111222,99999999' 
TABS,ioos:station:wmo:42048:1,1998-07-02T20:00:00Z,27.9396,-96.8429,2.0,214.3875042,20.0428042,-99999.0,'11111222,11111222,99999999' 
TABS,ioos:station:wmo:42048:1,1998-07-02T20:30:00Z,27.9396,-96.8429,2.0,240.4864457,22.0858054,-99999.0,'11111222,11111222,99999999' 
TABS,ioos:station:wmo:42048:1,1998-07-02T21:00:00Z,27.9396,-96.8429,2.0,243.2940368,25.52255669,-99999.0,'11111222,11111222,99999999' 
TABS,ioos:station:wmo:42048:1,1998-07-02T21:30:00Z,27.9396,-96.8429,2.0,240.5255956,23.6164773,-99999.0,'11111222,11111222,99999999' 
TABS,ioos:station:wmo:42048:1,1998-07-02T22:00:00Z,27.9396,-96.8429,2.0,239.8453031,23.4307597,-99999.0,'11111222,11111222,99999999' 
TABS,ioos:station:wmo:42048:1,1998-07-02T22:30:00Z,27.9396,-96.8429,2.0,232.5791764,24.76714356,-99999.0,'11111222,11111222,99999999' 
TABS,ioos:station:wmo:42048:1,1998-07-02T23:00:00Z,27.9396,-96.8429,2.0,235.5681912,28.72200724,-99999.0,'11111222,11111222,99999999' 
TABS,ioos:station:wmo:42048:1,1998-07-02T23:30:00Z,27.9396,-96.8429,2.0,232.3451128,28.04062945,-99999.0,'11111222,11111222,99999999' 
TABS,ioos:station:wmo:42048:1,1998-07-03T00:00:00Z,27.9396,-96.8429,2.0,228.2634864,25.9575673,-99999.0,'11111222,11111222,99999999' 
TABS,ioos:station:wmo:42048:1,1998-07-03T00:30:00Z,27.9396,-96.8429,2.0,222.5477916,27.10700647,-99999.0,'11111222,11111222,99999999' 
TABS,ioos:station:wmo:42048:1,1998-07-03T01:00:00Z,27.9396,-96.8429,2.0,220.2486924,29.2829114,-99999.0,'11111222,11111222,99999999' 
TABS,ioos:station:wmo:42048:1,1998-07-03T01:30:00Z,27.9396,-96.8429,2.0,220.387007,28.7521634,-99999.0,'11111222,11111222,99999999' 
TABS,ioos:station:wmo:42048:1,1998-07-03T02:00:00Z,27.9396,-96.8429,2.0,223.7638721,29.5073584,-99999.0,'11111222,11111222,99999999' 
TABS,ioos:station:wmo:42048:1,1998-07-03T02:30:00Z,27.9396,-96.8429,2.0,224.609924,31.18413058,-99999.0,'11111222,11111222,99999999' 
TABS,ioos:station:wmo:42048:1,1998-07-03T03:00:00Z,27.9396,-96.8429,2.0,222.4200643,30.47890418,-99999.0,'11111222,11111222,99999999' 
TABS,ioos:station:wmo:42048:1,1998-07-03T03:30:00Z,27.9396,-96.8429,2.0,216.5388362,31.52652534,-99999.0,'11111222,11111222,99999999' 
TABS,ioos:station:wmo:42048:1,1998-07-03T04:00:00Z,27.9396,-96.8429,2.0,216.0124546,31.6855456,-99999.0,'11111222,11111222,99999999' 
TABS,ioos:station:wmo:42048:1,1998-07-03T04:30:00Z,27.9396,-96.8429,2.0,215.0580772,31.12755692,-99999.0,'11111222,11111222,99999999' 
TABS,ioos:station:wmo:42048:1,1998-07-03T05:00:00Z,27.9396,-96.8429,2.0,216.866024,32.03600006,-99999.0,'11111222,11111222,99999999' 
TABS,ioos:station:wmo:42048:1,1998-07-03T05:30:00Z,27.9396,-96.8429,2.0,222.2285549,28.37401981,-99999.0,'11111222,11111222,99999999' 
TABS,ioos:station:wmo:42048:1,1998-07-03T06:00:00Z,27.9396,-96.8429,2.0,223.4531218,27.50940385,-99999.0,'11111222,11111222,99999999' 
TABS,ioos:station:wmo:42048:1,1998-07-03T06:30:00Z,27.9396,-96.8429,2.0,220.6222475,26.31041239,-99999.0,'11111222,11111222,99999999' 
TABS,ioos:station:wmo:42048:1,1998-07-03T07:00:00Z,27.9396,-96.8429,2.0,215.7798916,28.28911628,-99999.0,'11111222,11111222,99999999' 
TABS,ioos:station:wmo:42048:1,1998-07-03T07:30:00Z,27.9396,-96.8429,2.0,218.067761,27.06791828,-99999.0,'11111222,11111222,99999999' 
TABS,ioos:station:wmo:42048:1,1998-07-03T08:00:00Z,27.9396,-96.8429,2.0,215.7798916,28.28911628,-99999.0,'11111222,11111222,99999999' 
TABS,ioos:station:wmo:42048:1,1998-07-03T08:30:00Z,27.9396,-96.8429,2.0,214.4454054,28.1812207,-99999.0,'11111222,11111222,99999999' 
TABS,ioos:station:wmo:42048:1,1998-07-03T09:00:00Z,27.9396,-96.8429,2.0,213.4172323,26.23761613,-99999.0,'11111222,11111222,99999999' 
TABS,ioos:station:wmo:42048:1,1998-07-03T09:30:00Z,27.9396,-96.8429,2.0,213.216068,25.83049748,-99999.0,'11111222,11111222,99999999' 
TABS,ioos:station:wmo:42048:1,1998-07-03T10:00:00Z,27.9396,-96.8429,2.0,215.4219569,25.96628776,-99999.0,'11111222,11111222,99999999' 
TABS,ioos:station:wmo:42048:1,1998-07-03T10:30:00Z,27.9396,-96.8429,2.0,214.4932128,29.47134541,-99999.0,'11111222,11111222,99999999' 
TABS,ioos:station:wmo:42048:1,1998-07-03T11:00:00Z,27.9396,-96.8429,2.0,217.6365308,31.22879761,-99999.0,'11111222,11111222,99999999' 
TABS,ioos:station:wmo:42048:1,1998-07-03T11:30:00Z,27.9396,-96.8429,2.0,218.40316,27.57587714,-99999.0,'11111222,11111222,99999999' 
TABS,ioos:station:wmo:42048:1,1998-07-03T12:00:00Z,27.9396,-96.8429,2.0,216.6300585,28.22424667,-99999.0,'11111222,11111222,99999999' 
TABS,ioos:station:wmo:42048:1,1998-07-03T12:30:00Z,27.9396,-96.8429,2.0,215.1760988,32.07801116,-99999.0,'11111222,11111222,99999999' 
TABS,ioos:station:wmo:42048:1,1998-07-03T13:00:00Z,27.9396,-96.8429,2.0,218.7858545,31.16142648,-99999.0,'11111222,11111222,99999999' 
TABS,ioos:station:wmo:42048:1,1998-07-03T13:30:00Z,27.9396,-96.8429,2.0,215.3406599,30.13272805,-99999.0,'11111222,11111222,99999999' 
TABS,ioos:station:wmo:42048:1,1998-07-03T14:00:00Z,27.9396,-96.8429,2.0,215.5095686,28.73409473,-99999.0,'11111222,11111222,99999999' 
TABS,ioos:station:wmo:42048:1,1998-07-03T14:30:00Z,27.9396,-96.8429,2.0,218.6138098,29.37160874,-99999.0,'11111222,11111222,99999999' 
TABS,ioos:station:wmo:42048:1,1998-07-03T15:00:00Z,27.9396,-96.8429,2.0,217.3950558,29.44123809,-99999.0,'11111222,11111222,99999999' 
TABS,ioos:station:wmo:42048:1,1998-07-03T15:30:00Z,27.9396,-96.8429,2.0,217.449301,29.65151767,-99999.0,'11111222,11111222,99999999' 
TABS,ioos:station:wmo:42048:1,1998-07-03T16:00:00Z,27.9396,-96.8429,2.0,221.1603693,29.88576417,-99999.0,'11111222,11111222,99999999' 
TABS,ioos:station:wmo:42048:1,1998-07-03T16:30:00Z,27.9396,-96.8429,2.0,212.427066,28.06632502,-99999.0,'11111222,11111222,99999999' 
TABS,ioos:station:wmo:42048:1,1998-07-03T17:00:00Z,27.9396,-96.8429,2.0,216.233865,29.74183081,-99999.0,'11111222,11111222,99999999' 
TABS,ioos:station:wmo:42048:1,1998-07-03T17:30:00Z,27.9396,-96.8429,2.0,213.7673545,28.67802643,-99999.0,'11111222,11111222,99999999' 
TABS,ioos:station:wmo:42048:1,1998-07-03T18:00:00Z,27.9396,-96.8429,2.0,215.860002,28.49042295,-99999.0,'11111222,11111222,99999999' 
TABS,ioos:station:wmo:42048:1,1998-07-03T18:30:00Z,27.9396,-96.8429,2.0,215.3789051,25.21653426,-99999.0,'11111222,11111222,99999999' 
TABS,ioos:station:wmo:42048:1,1998-07-03T19:00:00Z,27.9396,-96.8429,2.0,219.3253655,24.45846275,-99999.0,'11111222,11111222,99999999' 
TABS,ioos:station:wmo:42048:1,1998-07-03T19:30:00Z,27.9396,-96.8429,2.0,213.7969663,22.23796978,-99999.0,'11111222,11111222,99999999' 
TABS,ioos:station:wmo:42048:1,1998-07-03T20:00:00Z,27.9396,-96.8429,2.0,213.5095094,26.44546275,-99999.0,'11111222,11111222,99999999' 
TABS,ioos:station:wmo:42048:1,1998-07-03T20:30:00Z,27.9396,-96.8429,2.0,215.2150795,24.79833865,-99999.0,'11111222,11111222,99999999' 
TABS,ioos:station:wmo:42048:1,1998-07-03T21:00:00Z,27.9396,-96.8429,2.0,216.3014992,24.40719976,-99999.0,'11111222,11111222,99999999' 
TABS,ioos:station:wmo:42048:1,1998-07-03T21:30:00Z,27.9396,-96.8429,2.0,224.7211015,21.81450206,-99999.0,'11111222,11111222,99999999' 
TABS,ioos:station:wmo:42048:1,1998-07-03T22:00:00Z,27.9396,-96.8429,2.0,214.5202087,19.71056823,-99999.0,'11111222,11111222,99999999' 
TABS,ioos:station:wmo:42048:1,1998-07-03T22:30:00Z,27.9396,-96.8429,2.0,217.7518281,19.22427892,-99999.0,'11111222,11111222,99999999' 
TABS,ioos:station:wmo:42048:1,1998-07-03T23:00:00Z,27.9396,-96.8429,2.0,211.0369649,21.39275111,-99999.0,'11111222,11111222,99999999' 
TABS,ioos:station:wmo:42048:1,1998-07-03T23:30:00Z,27.9396,-96.8429,2.0,214.681776,19.38413011,-99999.0,'11111222,11111222,99999999' 
TABS,ioos:station:wmo:42048:1,1998-07-04T00:00:00Z,27.9396,-96.8429,2.0,219.5108863,15.45041423,-99999.0,'11111222,11111222,99999999' 
TABS,ioos:station:wmo:42048:1,1998-07-04T00:30:00Z,27.9396,-96.8429,2.0,224.2695329,16.64664531,-99999.0,'11111222,11111222,99999999' 
TABS,ioos:station:wmo:42048:1,1998-07-04T01:00:00Z,27.9396,-96.8429,2.0,222.2431339,15.29120008,-99999.0,'11111222,11111222,99999999' 
TABS,ioos:station:wmo:42048:1,1998-07-04T01:30:00Z,27.9396,-96.8429,2.0,227.0737048,14.65378108,-99999.0,'11111222,11111222,99999999' 
TABS,ioos:station:wmo:42048:1,1998-07-04T02:00:00Z,27.9396,-96.8429,2.0,225.8709196,13.48608542,-99999.0,'11111222,11111222,99999999' 
TABS,ioos:station:wmo:42048:1,1998-07-04T02:30:00Z,27.9396,-96.8429,2.0,226.4785893,12.32897806,-99999.0,'11111222,11111222,99999999' 
TABS,ioos:station:wmo:42048:1,1998-07-04T03:00:00Z,27.9396,-96.8429,2.0,227.4219139,12.54821501,-99999.0,'11111222,11111222,99999999' 
TABS,ioos:station:wmo:42048:1,1998-07-04T03:30:00Z,27.9396,-96.8429,2.0,228.8833612,9.291506875,-99999.0,'11133222,11111222,99999999' 
TABS,ioos:station:wmo:42048:1,1998-07-04T04:00:00Z,27.9396,-96.8429,2.0,216.869601,7.45,-99999.0,'11133222,11111222,99999999' 
TABS,ioos:station:wmo:42048:1,1998-07-04T04:30:00Z,27.9396,-96.8429,2.0,237.5567289,7.773191108,-99999.0,'11133222,11111222,99999999' 
TABS,ioos:station:wmo:42048:1,1998-07-04T05:00:00Z,27.9396,-96.8429,2.0,225.7116896,8.535437892,-99999.0,'11133222,11111222,99999999' 
TABS,ioos:station:wmo:42048:1,1998-07-04T05:30:00Z,27.9396,-96.8429,2.0,229.3712208,6.864765109,-99999.0,'11133222,11111222,99999999' 
TABS,ioos:station:wmo:42048:1,1998-07-04T06:00:00Z,27.9396,-96.8429,2.0,228.7149647,6.547426976,-99999.0,'11133222,11111222,99999999' 
TABS,ioos:station:wmo:42048:1,1998-07-04T06:30:00Z,27.9396,-96.8429,2.0,215.8295522,6.611089169,-99999.0,'11133222,11111222,99999999' 
TABS,ioos:station:wmo:42048:1,1998-07-04T07:00:00Z,27.9396,-96.8429,2.0,206.6197121,4.664439945,-99999.0,'11133222,11111222,99999999' 
TABS,ioos:station:wmo:42048:1,1998-07-04T07:30:00Z,27.9396,-96.8429,2.0,244.9968113,2.46058936,-99999.0,'11133222,11111222,99999999' 
TABS,ioos:station:wmo:42048:1,1998-07-04T08:00:00Z,27.9396,-96.8429,2.0,227.8812613,4.219691932,-99999.0,'11133222,11111222,99999999' 
TABS,ioos:station:wmo:42048:1,1998-07-04T08:30:00Z,27.9396,-96.8429,2.0,230.5609404,5.399425895,-99999.0,'11133222,11111222,99999999' 
TABS,ioos:station:wmo:42048:1,1998-07-04T09:00:00Z,27.9396,-96.8429,2.0,196.489553,4.192433661,-99999.0,'11133222,11111222,99999999' 
TABS,ioos:station:wmo:42048:1,1998-07-04T09:30:00Z,27.9396,-96.8429,2.0,192.9511176,3.97102002,-99999.0,'11133222,11111222,99999999' 
TABS,ioos:station:wmo:42048:1,1998-07-04T10:00:00Z,27.9396,-96.8429,2.0,221.9656518,4.007842312,-99999.0,'11133222,11111222,99999999' 
TABS,ioos:station:wmo:42048:1,1998-07-04T10:30:00Z,27.9396,-96.8429,2.0,217.4806355,3.1881813,-99999.0,'11133222,11111222,99999999' 
TABS,ioos:station:wmo:42048:1,1998-07-04T11:00:00Z,27.9396,-96.8429,2.0,234.229549,4.584844599,-99999.0,'11133222,11111222,99999999' 
TABS,ioos:station:wmo:42048:1,1998-07-04T11:30:00Z,27.9396,-96.8429,2.0,232.5187331,3.1881813,-99999.0,'11133222,11111222,99999999' 
TABS,ioos:station:wmo:42048:1,1998-07-04T12:00:00Z,27.9396,-96.8429,2.0,215.7698197,4.584844599,-99999.0,'11133222,11111222,99999999' 
TABS,ioos:station:wmo:42048:1,1998-07-04T12:30:00Z,27.9396,-96.8429,2.0,213.0641097,3.555840266,-99999.0,'11133222,11111222,99999999' 
TABS,ioos:station:wmo:42048:1,1998-07-04T13:00:00Z,27.9396,-96.8429,2.0,217.5969022,4.884393514,-99999.0,'11133222,11111222,99999999' 
TABS,ioos:station:wmo:42048:1,1998-07-04T13:30:00Z,27.9396,-96.8429,2.0,186.7621634,2.547724475,-99999.0,'11133222,11111222,99999999' 
TABS,ioos:station:wmo:42048:1,1998-07-04T14:00:00Z,27.9396,-96.8429,2.0,196.6284119,3.110064308,-99999.0,'11133222,11111222,99999999' 
TABS,ioos:station:wmo:42048:1,1998-07-04T14:30:00Z,27.9396,-96.8429,2.0,168.541064,0.755049667,-99999.0,'11133222,11111222,99999999' 
TABS,ioos:station:wmo:42048:1,1998-07-04T15:00:00Z,27.9396,-96.8429,2.0,185.7484395,1.497531302,-99999.0,'11133222,11111222,99999999' 
TABS,ioos:station:wmo:42048:1,1998-07-04T15:30:00Z,27.9396,-96.8429,2.0,206.5647786,2.660920893,-99999.0,'11133222,11111222,99999999' 
TABS,ioos:station:wmo:42048:1,1998-07-04T16:00:00Z,27.9396,-96.8429,2.0,183.3927927,2.53444274,-99999.0,'11133222,11111222,99999999' 